GFSFLT2_925_thetae_021.txt.gz
Theta_e
322 323 329 329 330 331 332 328 336 338 341 337 340 341 342 344 345 348 348 349 348 348 348 349 349 349 350 350 350 349 351 351
321 323 324 327 328 328 330 338 335 333 335 333 339 340 342 343 343 345 347 349 349 350 350 349 349 350 350 350 349 349 351 352
322 322 324 324 326 327 330 332 337 336 333 336 339 340 340 340 341 342 345 348 350 352 350 350 350 350 350 351 351 351 350 351
323 323 322 323 325 328 332 334 330 332 333 332 335 337 338 338 338 340 343 345 348 349 349 350 351 350 350 351 351 351 351 352
327 325 322 323 324 325 326 328 338 331 331 335 333 335 336 336 341 343 344 345 347 349 353 353 352 351 351 351 351 351 352 352
328 328 326 325 323 324 324 329 328 330 330 331 333 338 340 341 341 343 345 345 347 349 353 353 353 353 352 351 351 352 353 351
331 328 326 325 323 323 325 327 329 328 331 333 335 337 342 345 344 344 344 345 349 349 353 354 354 353 352 352 352 352 354 351
332 330 327 326 325 324 324 324 327 327 332 333 336 336 336 340 341 345 346 346 347 348 349 352 352 351 351 352 353 354 353 351
328 329 325 326 326 326 326 326 327 330 331 336 333 335 339 343 342 345 347 347 346 348 351 349 348 348 349 351 353 354 352 350
332 326 326 326 326 326 326 326 327 328 332 335 335 336 338 340 342 344 344 346 345 343 345 346 345 346 348 351 354 353 351 347
336 332 328 332 336 327 325 329 330 332 333 337 336 333 337 334 334 339 340 342 342 340 341 342 344 347 350 352 353 352 350 347
336 333 332 333 336 336 337 332 337 338 340 340 337 338 339 335 334 336 338 341 343 342 343 344 343 347 350 352 352 351 350 347
341 336 334 338 337 336 338 337 337 337 338 338 340 339 338 336 338 338 337 339 340 343 345 346 346 346 349 350 351 351 349 347
344 342 338 335 336 341 339 337 337 337 338 339 339 341 343 343 345 345 346 346 345 346 347 346 347 349 349 350 350 349 346 345
343 341 335 331 335 333 333 336 337 343 343 345 344 344 344 345 344 344 344 344 343 345 345 346 346 346 346 341 343 344 346 345
342 337 332 329 328 327 327 328 328 330 333 336 340 341 344 344 344 344 343 343 343 345 345 344 343 341 342 342 343 344 344 343
339 335 332 328 329 328 327 325 325 326 328 334 340 342 344 345 345 344 343 341 340 342 343 340 340 340 340 340 339 341 342 342
340 335 335 330 328 326 326 325 325 325 325 327 331 337 341 342 342 342 342 340 341 340 340 338 337 338 338 337 338 339 338 337
334 331 329 325 323 320 321 320 321 321 321 321 322 328 331 333 335 336 339 338 339 339 338 338 338 338 336 337 337 336 333 330

GFSFLT2_925_thetae_024.txt.gz
Theta_e
325 324 326 328 334 335 338 339 341 339 341 340 339 341 340 340 341 345 349 350 349 349 349 349 350 353 355 357 360 360 357 359
325 325 325 328 331 335 337 343 342 339 339 340 340 339 338 337 339 342 345 349 349 350 349 350 350 352 354 357 359 358 356 357
326 326 325 326 330 333 335 336 340 340 338 336 336 337 336 335 336 337 340 346 349 350 349 350 351 352 354 356 357 357 357 357
326 325 325 326 329 333 337 341 337 338 338 335 336 336 335 335 335 335 337 342 346 350 350 349 352 352 353 355 356 357 356 358
329 324 324 325 327 329 333 334 342 339 338 336 334 335 336 337 338 338 347 346 346 349 352 352 352 354 353 354 355 355 356 357
332 328 325 324 324 327 329 336 335 336 338 336 335 335 335 336 336 338 342 349 350 350 352 353 353 357 356 354 354 354 355 356
330 329 328 328 325 324 325 327 331 331 334 335 335 334 334 334 334 336 346 350 352 352 353 356 355 357 356 355 354 354 355 356
334 330 329 329 328 327 325 325 326 328 330 332 333 334 334 334 334 337 344 350 351 353 354 356 356 357 357 356 355 355 356 357
336 334 333 333 331 330 329 327 325 327 328 329 330 332 335 339 337 338 339 348 351 353 354 356 355 356 357 356 356 357 357 359
337 335 337 333 332 331 330 329 328 326 327 328 330 332 333 341 339 340 340 342 349 351 352 353 353 355 354 356 357 358 359 359
339 338 334 332 331 332 332 332 330 328 328 328 330 333 338 339 340 343 343 344 347 348 349 351 351 352 353 354 357 358 358 358
341 339 340 343 341 339 340 337 331 330 329 330 330 334 337 339 341 340 340 344 348 346 347 350 350 351 354 356 357 357 356 356
339 340 338 341 338 338 339 337 343 332 331 330 333 335 343 341 342 342 344 347 346 347 348 350 350 353 355 355 356 355 355 354
339 342 343 337 339 341 345 345 342 342 341 341 341 344 345 347 347 347 349 349 350 352 352 349 353 354 355 355 355 355 355 354
342 342 338 335 339 337 338 342 347 343 342 343 344 345 347 348 349 349 348 349 349 351 352 353 353 354 355 355 355 354 353 352
342 338 337 334 331 332 334 335 338 343 344 344 344 343 344 344 345 346 346 347 346 349 352 353 352 353 351 351 351 350 351 349
340 337 332 333 333 330 330 331 332 336 340 343 345 346 347 349 348 348 349 349 349 351 352 352 352 350 350 349 350 349 348 347
339 335 336 334 330 328 330 330 330 331 333 333 335 338 342 347 348 349 348 348 348 349 349 347 348 346 345 348 347 346 346 345
338 334 331 328 323 322 323 323 324 324 325 326 329 330 333 339 344 345 347 348 347 346 346 347 345 345 345 344 344 344 343 341

GFSFLT2_925_thetae_030.txt.gz
Theta_e
328 328 327 328 330 331 335 337 341 341 341 343 346 345 347 347 344 343 346 350 351 353 352 351 354 354 355 364 366 367 368 367
329 328 327 327 329 330 332 341 345 342 344 346 352 348 346 345 344 345 343 350 350 349 352 350 352 354 355 358 367 368 368 369
331 330 328 326 326 328 330 335 341 344 344 343 346 350 348 346 344 344 340 347 350 350 349 350 350 353 355 357 364 368 369 369
330 331 330 328 329 328 331 341 336 338 341 338 347 347 347 344 344 343 342 341 343 350 351 350 349 351 353 356 357 365 368 368
332 330 331 330 328 326 326 328 339 339 339 339 341 342 343 343 342 344 346 346 345 347 352 353 351 349 351 353 355 360 366 367
332 333 331 333 330 329 327 329 331 336 338 339 342 344 344 343 343 343 348 352 350 349 351 353 352 352 351 352 355 357 364 365
330 328 331 331 331 329 330 331 332 332 339 338 339 344 343 344 344 345 346 347 354 351 355 361 357 355 353 353 354 356 360 364
331 329 329 331 331 331 331 330 330 331 332 335 338 340 346 340 341 345 346 345 352 359 360 362 364 360 356 355 355 355 357 362
335 331 331 332 333 332 330 331 330 331 333 335 336 338 343 346 340 347 345 344 348 358 360 362 363 362 359 357 358 355 359 360
335 336 338 332 331 331 333 330 328 329 331 332 335 336 336 340 344 345 346 344 347 342 355 358 356 358 363 360 361 360 361 363
336 334 332 333 332 332 333 336 333 332 333 332 331 332 334 334 336 340 342 346 348 340 338 353 354 356 360 365 362 363 363 368
335 334 335 335 331 332 332 338 337 335 336 334 337 336 334 336 334 335 335 336 344 340 337 341 355 357 363 364 366 364 367 366
332 334 332 332 333 337 341 345 347 343 342 340 341 345 349 345 340 334 336 338 336 339 346 353 356 358 365 366 368 366 367 368
334 338 336 336 339 340 350 350 348 347 345 344 345 344 344 346 343 344 351 348 343 352 354 362 359 365 368 369 368 367 366 368
335 337 347 341 348 345 343 345 346 346 343 342 342 342 341 350 351 347 348 352 350 352 370 364 368 368 369 371 367 367 366 365
334 335 343 342 340 341 342 344 344 345 344 343 343 342 345 350 351 351 354 359 358 363 369 372 368 368 369 367 364 363 363 362
340 348 343 341 340 340 342 344 345 348 349 352 354 355 355 358 359 356 360 363 360 367 368 369 368 366 365 364 363 362 361 356
348 335 336 343 339 340 341 342 343 345 347 348 350 351 351 353 356 357 360 359 361 360 359 361 360 359 358 360 360 357 352 351
333 332 330 336 333 332 332 334 336 336 337 339 343 347 349 351 347 347 351 352 354 354 354 356 358 358 359 357 354 352 350 348

GFSFLT2_925_thetae_033.txt.gz
Theta_e
326 326 323 323 322 323 325 329 333 335 335 341 343 344 343 341 341 341 342 345 344 343 345 349 350 355 357 361 360 361 361 358
327 326 325 322 324 323 324 326 333 333 335 341 345 345 344 343 343 343 341 342 346 345 344 350 351 352 357 363 362 362 361 362
328 326 324 322 322 321 323 326 328 333 334 334 342 344 346 344 343 344 343 342 344 346 345 349 351 352 354 362 363 363 363 362
326 328 326 325 322 320 323 327 328 327 329 332 339 344 344 343 342 342 342 343 342 346 347 347 351 352 354 363 363 365 364 364
326 325 326 325 325 322 321 320 324 328 330 329 331 342 343 343 341 342 340 336 340 345 348 348 351 353 354 360 364 364 365 366
326 326 328 330 326 325 322 322 321 323 323 328 337 340 340 339 338 339 341 339 339 346 345 347 348 352 353 355 361 364 366 366
325 327 328 327 329 327 325 324 323 322 323 325 327 339 340 337 335 336 340 343 340 345 346 346 346 349 352 354 355 362 364 366
330 328 326 327 328 327 327 326 325 325 326 328 328 340 340 340 337 340 342 345 345 342 347 348 347 347 349 352 354 354 362 364
329 329 330 330 326 327 329 328 327 326 325 327 328 332 335 339 336 335 335 340 344 346 345 348 351 349 349 350 351 354 354 361
330 331 333 331 328 327 329 331 329 327 327 328 328 332 336 339 337 340 339 337 338 349 348 350 359 352 351 351 351 354 356 357
331 330 329 332 330 332 329 329 331 332 328 328 327 328 327 329 332 328 332 334 339 340 350 353 360 358 353 353 354 353 356 357
329 329 330 330 332 330 330 334 342 337 333 329 328 328 327 341 339 333 332 330 333 338 337 353 353 361 357 355 357 355 354 358
331 328 329 332 329 328 333 336 348 344 344 344 344 345 342 342 341 340 332 331 331 332 336 343 352 359 362 359 357 361 359 364
329 334 335 342 334 345 350 347 347 345 344 342 341 340 340 347 346 345 348 348 346 338 342 345 344 358 359 362 361 360 366 367
336 335 343 342 344 342 343 348 345 346 342 341 342 341 348 350 349 345 345 346 350 362 368 370 360 359 362 366 366 366 369 369
338 336 337 335 337 337 341 343 349 351 352 352 356 356 356 356 355 358 358 360 364 365 365 366 370 369 370 368 368 367 365 362
335 334 337 340 331 336 341 349 350 350 351 353 353 354 354 355 357 359 359 362 364 363 365 366 367 366 366 366 365 362 360 355
336 332 336 335 329 329 345 345 343 346 348 349 350 352 350 350 352 354 355 356 358 362 362 364 364 363 362 361 359 355 351 350
332 330 329 329 327 327 329 338 338 339 341 343 346 345 346 348 348 346 349 350 351 353 355 356 357 357 358 356 353 352 349 344